Vicksburg, LA

1:13 AM CST on December 17, 2017 (GMT -0600)
Vicksburg Tallulah Regional

Weather History for KTVR - October, 2011

Change the Weather History Date:

Thursday, October 13, 2011

  Actual Average Record
Temperature  
Mean Temperature 66 °F 67 °F  
Max Temperature 81 °F 80 °F 94 °F (1963)
Min Temperature 50 °F 54 °F 33 °F (1977)
Degree Days  
Heating Degree Days 0 2  
Month to date heating degree days 22 19  
Since 1 July heating degree days 23 24  
Cooling Degree Days 1 4  
Month to date cooling degree days 45 64  
Year to date cooling degree days 2536 2161  
Growing Degree Days 16 (Base 50)    
Moisture  
Dew Point 58 °F    
Average Humidity 68    
Maximum Humidity 100    
Minimum Humidity 36    
Precipitation  
Precipitation 0.01 in 0.17 in 2.38 in (1970)
Month to date precipitation 0.32 1.86  
Year to date precipitation 27.42 41.32  
Sea Level Pressure  
Sea Level Pressure 29.81 in    
Wind  
Wind Speed 5 mph (WNW)    
Max Wind Speed 16 mph    
Max Gust Speed 23 mph    
Visibility 6 miles    
Events Fog    
T = Trace of Precipitation, MM = Missing Value Source: NWS Daily Summary

Daily Weather History Graph

Daily Weather History Graph

Search for Another Location

Airport or City:

Trip Planner

Search our weather history database for the weather conditions in past years. The results will help you decide how hot, cold, wet, or windy it might be!

Date:

Astronomy

Oct. 13, 2011 Rise Set
Actual Time 7:06 AM CDT 6:34 PM CDT
Civil Twilight 6:41 AM CDT 6:58 PM CDT
Nautical Twilight 6:13 AM CDT 7:27 PM CDT
Astronomical Twilight 5:44 AM CDT 7:55 PM CDT
Moon 7:19 PM CDT (10/13) 8:29 AM CDT (10/13)
Length of Visible Light 12h 17m
Length of Day
11h 27m
Full, 98% of the Moon is Illuminated
Oct 13
Full
Oct 19
Last Quarter
Oct 26
New
Nov 2
First Quarter
Nov 10
Full

Hourly Weather History & Observations

Time (CDT) Temp. Heat Index Dew Point Humidity Pressure Visibility Wind Dir Wind Speed Gust Speed Precip Events Conditions
12:06 AM 60.8 °F - 60.8 °F 100% 29.79 in 0.8 mi Calm Calm - N/A   Mist
12:14 AM 60.8 °F - 60.8 °F 100% 29.79 in 0.2 mi Calm Calm - N/A Fog Fog
12:53 AM 57.9 °F - 57.9 °F 100% 29.80 in 0.2 mi Calm Calm - N/A Fog Fog
1:03 AM 57.2 °F - 57.2 °F 100% 29.78 in 0.2 mi Calm Calm - N/A Fog Fog
1:53 AM 59.0 °F - 57.9 °F 96% 29.79 in 0.2 mi Calm Calm - N/A Fog Fog
2:30 AM 60.8 °F - 59.0 °F 94% 29.77 in 1.0 mi Calm Calm - N/A   Clear
2:53 AM 62.1 °F - 61.0 °F 96% 29.78 in 1.8 mi Calm Calm - N/A   Clear
3:00 AM 62.6 °F - 60.8 °F 94% 29.77 in 2.5 mi SW 3.5 mph - N/A   Clear
3:11 AM 62.6 °F - 62.6 °F 100% 29.76 in 3.0 mi SSW 3.5 mph - N/A   Clear
3:53 AM 63.0 °F - 62.1 °F 97% 29.78 in 5.0 mi SSW 3.5 mph - N/A   Scattered Clouds
4:53 AM 64.9 °F - 63.0 °F 93% 29.77 in 7.0 mi SW 5.8 mph - N/A   Partly Cloudy
5:53 AM 64.0 °F - 62.1 °F 93% 29.78 in 7.0 mi WSW 5.8 mph - N/A   Clear
6:53 AM 63.0 °F - 61.0 °F 93% 29.79 in 6.0 mi WSW 4.6 mph - 0.01 in   Clear
7:53 AM 63.0 °F - 61.0 °F 93% 29.80 in 5.0 mi West 4.6 mph - N/A   Clear
9:53 AM 70.0 °F - 60.1 °F 71% 29.83 in 10.0 mi NNW 9.2 mph 17.3 mph N/A   Clear
10:53 AM 72.0 °F - 59.0 °F 64% 29.85 in 10.0 mi NNW 10.4 mph 19.6 mph N/A   Clear
11:53 AM 73.9 °F - 60.1 °F 62% 29.86 in 10.0 mi NNW 11.5 mph 17.3 mph N/A   Scattered Clouds
12:53 PM 75.9 °F - 57.9 °F 54% 29.85 in 10.0 mi North 11.5 mph 18.4 mph N/A   Clear
1:53 PM 78.1 °F - 57.9 °F 50% 29.82 in 10.0 mi NNW 8.1 mph - N/A   Partly Cloudy
2:53 PM 79.0 °F - 57.0 °F 47% 29.80 in 1.8 mi North 10.4 mph - N/A   Haze
3:06 PM 80.6 °F 80.8 °F 57.2 °F 45% 29.78 in 10.0 mi North 8.1 mph - N/A   Partly Cloudy
3:53 PM 81.0 °F 80.5 °F 54.0 °F 39% 29.80 in 10.0 mi NW 8.1 mph - N/A   Clear
4:53 PM 80.1 °F - 51.1 °F 36% 29.80 in 10.0 mi NW 9.2 mph - N/A   Clear
5:53 PM 77.0 °F - 50.0 °F 39% 29.81 in 10.0 mi NW 5.8 mph - N/A   Clear
7:53 PM 59.0 °F - 52.0 °F 78% 29.84 in 10.0 mi Calm Calm - N/A   Clear
8:53 PM 55.9 °F - 53.1 °F 90% 29.86 in 10.0 mi Calm Calm - N/A   Clear
9:53 PM 55.9 °F - 53.1 °F 90% 29.88 in 10.0 mi Calm Calm - N/A   Clear
10:53 PM 52.0 °F - 51.1 °F 97% 29.89 in 10.0 mi Calm Calm - N/A   Clear
11:53 PM 52.0 °F - 51.1 °F 97% 29.91 in 9.0 mi Calm Calm - N/A   Clear